DW8052 Weather Reports


time (UTC)temp
F
wind
direction
speed
knots
gust
knots
rain 1hr
in
rain 24hr
in
rain mn
in
humidity
%
barometer
mb
20220124104740 69 17 5.2 6.1 0.00 0.18 0.18 81 1011.7
20220124104241 69 18 5.2 7.0 0.00 0.18 0.18 81 1011.8
20220124103741 68 21 6.1 7.0 0.00 0.18 0.18 81 1011.7
20220124103241 69 26 2.6 5.2 0.00 0.18 0.18 81 1011.7
20220124102741 68 26 4.3 6.1 0.00 0.18 0.18 81 1011.7
20220124102241 69 31 5.2 6.1 0.00 0.18 0.18 82 1011.6
20220124101740 68 48 5.2 7.0 0.00 0.18 0.18 82 1011.6
20220124101240 68 41 5.2 7.0 0.00 0.18 0.18 82 1011.6
20220124100741 68 41 5.2 7.0 0.00 0.18 0.18 82 1011.5
20220124100241 68 28 4.3 6.1 0.00 0.18 0.18 81 1011.4
20220124095741 68 28 4.3 5.2 0.00 0.18 0.18 81 1011.5
20220124095241 68 26 4.3 5.2 0.00 0.18 0.18 81 1011.4
20220124094740 68 24 4.3 5.2 0.00 0.18 0.18 81 1011.5
20220124094241 68 24 4.3 5.2 0.00 0.18 0.18 81 1011.5
20220124093741 68 25 5.2 7.0 0.00 0.18 0.18 81 1011.3
20220124093241 68 26 6.1 7.0 0.00 0.18 0.18 81 1011.4
20220124092740 68 38 5.2 7.0 0.00 0.18 0.18 81 1011.3
20220124092241 68 51 6.1 7.8 0.00 0.18 0.18 81 1011.3
20220124091741 68 48 6.1 7.8 0.00 0.18 0.18 81 1011.2
20220124091241 68 49 7.0 7.8 0.00 0.18 0.18 81 1011.2
20220124090741 68 38 6.1 7.0 0.00 0.18 0.18 81 1011.3
20220124090241 68 51 5.2 7.0 0.00 0.18 0.18 81 1011.1
20220124085741 68 39 6.1 7.0 0.00 0.18 0.18 80 1011.1
20220124085241 68 43 6.1 7.8 0.00 0.18 0.18 80 1011.2
20220124084741 69 57 5.2 7.0 0.00 0.18 0.18 79 1011.1
20220124084240 69 38 6.1 7.8 0.00 0.18 0.18 78 1011.1
20220124083741 69 53 6.1 10.4 0.00 0.18 0.18 76 1011.0
20220124083241 69 42 7.8 10.4 0.00 0.18 0.18 76 1011.1
20220124082741 69 48 7.8 10.4 0.00 0.18 0.18 75 1010.9
20220124082241 70 53 7.8 10.4 0.00 0.18 0.18 75 1010.9
20220124081741 70 58 7.8 10.4 0.00 0.18 0.18 75 1010.9
20220124081240 70 57 7.8 10.4 0.00 0.18 0.18 74 1011.0
20220124080740 70 64 7.0 8.7 0.00 0.18 0.18 75 1011.1
20220124080241 70 71 7.8 10.4 0.00 0.18 0.18 75 1011.0
20220124075741 70 73 7.0 10.4 0.00 0.18 0.18 75 1010.9
20220124075241 70 59 7.8 10.4 0.00 0.18 0.18 75 1010.9
20220124074740 70 71 8.7 12.2 0.00 0.18 0.18 74 1011.0
20220124074240 70 71 7.0 11.3 0.00 0.18 0.18 75 1010.8
20220124073740 70 65 6.1 8.7 0.00 0.18 0.18 74 1010.9
20220124073241 70 57 7.8 11.3 0.00 0.18 0.18 74 1011.1
20220124072740 70 67 8.7 12.2 0.00 0.18 0.18 74 1011.0
20220124072241 70 63 7.8 10.4 0.00 0.18 0.18 74 1011.0
20220124071741 70 64 10.4 13.0 0.00 0.18 0.18 72 1011.0
20220124071240 71 52 11.3 13.0 0.00 0.18 0.18 71 1010.9
20220124070740 72 63 8.7 11.3 0.00 0.18 0.18 71 1011.1
20220124070240 72 61 8.7 13.9 0.00 0.18 0.18 71 1010.9
20220124065740 73 58 11.3 13.9 0.00 0.18 0.18 71 1011.0
20220124065240 73 65 8.7 11.3 0.00 0.18 0.18 71 1010.9
20220124064740 73 75 11.3 13.9 0.00 0.18 0.18 71 1011.0
20220124064241 73 71 9.6 12.2 0.00 0.18 0.18 73 1011.0
20220124063741 72 68 8.7 11.3 0.00 0.18 0.18 73 1011.0
20220124063240 72 78 8.7 11.3 0.00 0.18 0.18 72 1011.1
20220124062740 73 74 7.8 11.3 0.00 0.18 0.18 71 1011.1
20220124062240 73 68 7.0 12.2 0.00 0.18 0.18 71 1011.1
20220124061740 73 71 9.6 12.2 0.00 0.18 0.18 70 1011.0
20220124061240 73 64 9.6 12.2 0.00 0.18 0.18 71 1011.0
20220124060741 73 82 7.8 10.4 0.00 0.18 0.18 72 1011.1
20220124060240 73 66 7.8 12.2 0.00 0.18 0.18 73 1011.1
20220124055741 73 66 7.8 12.2 0.00 0.18 0.18 74 1011.1
20220124055240 72 71 7.8 11.3 0.00 0.18 0.18 75 1011.3
20220124054741 71 69 7.8 11.3 0.00 0.18 0.18 75 1011.2
20220124054241 71 74 8.7 12.2 0.00 0.18 0.18 75 1011.1
20220124053740 71 71 9.6 11.3 0.00 0.18 0.18 74 1011.3
20220124053240 71 68 8.7 12.2 0.00 0.18 0.18 74 1011.4
20220124052740 71 92 10.4 12.2 0.00 0.18 0.18 74 1011.3
20220124052240 71 77 8.7 13.0 0.00 0.18 0.18 73 1011.1
20220124051740 72 91 10.4 12.2 0.00 0.18 0.18 72 1011.2
20220124051241 72 81 8.7 11.3 0.00 0.18 0.18 72 1011.3
20220124050741 72 84 8.7 11.3 0.00 0.18 0.18 72 1011.2
20220124050240 72 88 10.4 11.3 0.00 0.18 0.18 71 1011.2
20220124045740 72 82 8.7 10.4 0.00 0.18 0.18 71 1011.2
20220124045241 72 82 8.7 11.3 0.00 0.18 0.18 71 1011.3
20220124044740 73 96 8.7 11.3 0.00 0.18 0.18 70 1011.4
20220124044239 73 89 8.7 12.2 0.00 0.18 0.18 68 1011.4
20220124043740 74 88 9.6 11.3 0.00 0.18 0.18 66 1011.5
20220124043240 75 100 7.8 11.3 0.00 0.18 0.18 65 1011.5
20220124042740 75 103 7.8 11.3 0.00 0.18 0.18 65 1011.5
20220124042240 75 97 7.8 10.4 0.00 0.18 0.18 66 1011.6
20220124041740 74 109 7.8 11.3 0.00 0.18 0.18 68 1011.8
20220124041240 73 111 7.8 11.3 0.00 0.18 0.18 68 1011.7
20220124040740 73 111 7.8 11.3 0.00 0.18 0.18 68 1011.6
20220124040240 74 103 7.8 11.3 0.00 0.18 0.18 66 1011.6
20220124035740 74 99 8.7 11.3 0.00 0.18 0.18 66 1011.8
20220124035240 75 101 8.7 11.3 0.00 0.18 0.18 64 1011.8
20220124034740 75 95 10.4 12.2 0.00 0.18 0.18 62 1011.8
20220124034240 76 102 8.7 10.4 0.00 0.18 0.18 62 1011.8
20220124033740 76 114 8.7 13.0 0.00 0.18 0.18 62 1011.8
20220124033240 76 107 8.7 11.3 0.00 0.18 0.18 63 1011.9
20220124032740 75 106 6.1 10.4 0.00 0.18 0.18 63 1011.8
20220124032239 75 109 7.8 11.3 0.00 0.18 0.18 64 1012.0
20220124031740 75 106 7.0 11.3 0.00 0.18 0.18 64 1012.0
20220124031240 75 109 8.7 11.3 0.00 0.18 0.18 62 1012.0
20220124030739 76 107 7.8 10.4 0.00 0.18 0.18 61 1012.1
20220124030239 76 115 7.0 10.4 0.00 0.18 0.18 61 1012.3
20220124025740 76 111 7.0 10.4 0.00 0.18 0.18 60 1012.1
20220124025240 76 107 5.2 10.4 0.00 0.18 0.18 60 1012.1
20220124024740 76 110 4.3 8.7 0.00 0.18 0.18 61 1012.2
20220124024240 76 100 6.1 8.7 0.00 0.18 0.18 61 1012.3
20220124023739 76 134 3.5 7.0 0.00 0.18 0.18 61 1012.4
20220124023239 76 103 7.0 10.4 0.00 0.18 0.18 60 1012.5
20220124022740 76 156 7.8 11.3 0.00 0.18 0.18 60 1012.7
20220124022240 76 122 6.1 10.4 0.00 0.19 0.18 60 1012.7
20220124021739 76 128 6.1 8.7 0.00 0.19 0.18 60 1012.8
20220124021240 76 112 4.3 7.8 0.00 0.19 0.18 61 1012.9
20220124020740 76 114 4.3 7.8 0.00 0.19 0.18 61 1012.9
20220124020240 76 116 5.2 8.7 0.00 0.19 0.18 61 1012.9
20220124015739 76 137 6.1 10.4 0.00 0.19 0.18 63 1013.1
20220124015240 76 129 6.1 10.4 0.00 0.19 0.18 63 1013.0
20220124014739 76 131 7.8 12.2 0.00 0.19 0.18 63 1013.0
20220124014240 76 122 7.0 12.2 0.00 0.19 0.18 63 1013.1
20220124013739 77 126 8.7 12.2 0.00 0.19 0.18 61 1013.1
20220124013240 77 130 8.7 12.2 0.00 0.19 0.18 61 1013.2
20220124012740 76 127 8.7 12.2 0.00 0.19 0.18 63 1013.2
20220124012239 76 130 8.7 13.0 0.00 0.19 0.18 62 1013.2
20220124011739 76 125 7.8 11.3 0.00 0.19 0.18 63 1013.5
20220124011239 76 129 7.0 12.2 0.00 0.19 0.18 63 1013.4
20220124010739 76 130 7.8 11.3 0.00 0.19 0.18 63 1013.4
20220124010239 76 132 7.8 11.3 0.00 0.19 0.18 63 1013.7
20220124005740 75 133 8.7 11.3 0.00 0.19 0.18 63 1013.7
20220124005240 75 126 8.7 12.2 0.00 0.19 0.18 63 1013.6
20220124004740 75 108 6.1 10.4 0.00 0.19 0.18 64 1013.7
20220124004239 75 109 7.0 10.4 0.00 0.19 0.18 63 1013.7
20220124003740 75 118 5.2 8.7 0.00 0.19 0.18 64 1013.6
20220124003239 75 100 6.1 7.8 0.00 0.19 0.18 63 1013.8
20220124002739 75 102 5.2 7.8 0.00 0.19 0.18 63 1013.7
20220124002240 76 95 6.1 8.7 0.00 0.19 0.18 61 1013.7
20220124001739 76 95 5.2 7.0 0.00 0.19 0.18 62 1013.8
20220124001240 76 90 5.2 6.1 0.00 0.19 0.18 63 1013.8
20220124000739 77 84 3.5 5.2 0.00 0.19 0.18 63 1014.0
20220124000241 76 87 2.6 4.3 0.00 0.19 0.18 64 1013.9
20220123235740 76 120 1.7 2.6 0.00 0.19 0.18 65 1013.9
20220123235240 75 124 0.0 2.6 0.00 0.19 0.18 66 1013.9
20220123234740 75 133 1.7 4.3 0.00 0.19 0.18 66 1014.0
20220123234239 75 146 2.6 4.3 0.00 0.19 0.18 67 1014.0
20220123233740 74 146 2.6 6.1 0.00 0.19 0.18 67 1014.1
20220123233239 74 153 1.7 6.1 0.00 0.19 0.18 66 1014.2
20220123232740 74 155 3.5 6.1 0.00 0.19 0.18 67 1014.2
20220123232238 74 129 2.6 6.1 0.00 0.19 0.18 67 1014.2
20220123231739 74 121 2.6 5.2 0.00 0.19 0.18 68 1014.1
20220123231239 73 132 4.3 7.0 0.00 0.19 0.18 69 1014.2
20220123230739 73 120 5.2 7.8 0.00 0.19 0.18 70 1014.3
20220123230239 73 157 4.3 7.0 0.00 0.19 0.18 71 1014.4
20220123225740 72 135 6.1 8.7 0.00 0.19 0.18 72 1014.3
20220123225239 72 126 4.3 7.0 0.00 0.19 0.18 73 1014.3
20220123224740 71 116 4.3 7.0 0.00 0.19 0.18 73 1014.3
20220123224239 71 121 4.3 7.0 0.00 0.19 0.18 75 1014.4
20220123223740 70 128 2.6 7.0 0.00 0.19 0.18 77 1014.5
20220123223239 70 113 3.5 6.1 0.00 0.19 0.18 78 1014.6
20220123222739 69 119 2.6 5.2 0.00 0.19 0.18 79 1014.5
20220123222240 69 139 1.7 6.1 0.00 0.19 0.18 80 1014.7
20220123221739 69 171 2.6 7.0 0.00 0.19 0.18 81 1014.8
20220123221240 69 212 4.3 10.4 0.00 0.19 0.18 81 1014.5
20220123220739 69 164 7.0 11.3 0.00 0.19 0.18 81 1014.6
20220123220239 69 166 6.1 12.2 0.00 0.19 0.18 80 1014.6
20220123215739 69 155 7.8 13.9 0.00 0.20 0.18 80 1014.8
20220123215239 69 171 7.8 12.2 0.00 0.20 0.18 81 1014.5
20220123214739 69 189 4.3 7.8 0.00 0.21 0.18 81 1014.7
20220123214239 69 171 4.3 8.7 0.00 0.21 0.18 81 1014.7
20220123213739 70 159 4.3 7.8 0.00 0.21 0.18 81 1014.6
20220123213239 70 153 6.1 10.4 0.00 0.21 0.18 81 1014.7
20220123212739 70 222 1.7 4.3 0.00 0.21 0.18 82 1014.6
20220123212239 69 223 0.0 2.6 0.00 0.21 0.18 83 1014.6
20220123211739 69 223 0.9 2.6 0.00 0.21 0.18 84 1014.6
20220123211239 69 223 1.7 4.3 0.00 0.21 0.18 85 1014.5
20220123210739 69 225 1.7 4.3 0.00 0.21 0.18 86 1014.5
20220123210239 68 224 2.6 4.3 0.00 0.21 0.18 87 1014.4
20220123205739 68 224 2.6 5.2 0.00 0.21 0.18 87 1014.4
20220123205239 68 226 4.3 6.1 0.00 0.21 0.18 88 1014.6
20220123204739 67 231 3.5 6.1 0.00 0.21 0.18 88 1014.5
20220123204239 67 224 5.2 7.0 0.00 0.21 0.18 89 1014.3
20220123203740 67 215 5.2 7.8 0.00 0.21 0.18 89 1014.3
20220123203239 66 213 6.1 7.8 0.00 0.21 0.18 89 1014.3
20220123202739 66 214 5.2 7.8 0.00 0.21 0.18 89 1014.3
20220123202239 66 203 4.3 8.7 0.00 0.21 0.18 89 1014.4
20220123201739 66 187 5.2 8.7 0.00 0.21 0.18 89 1014.3
20220123201239 66 186 7.0 10.4 0.00 0.21 0.18 89 1014.2
20220123200739 66 180 6.1 8.7 0.00 0.21 0.18 89 1014.1
20220123200239 66 175 6.1 7.8 0.00 0.21 0.18 89 1014.1
20220123195739 66 169 6.1 10.4 0.00 0.21 0.18 89 1014.0
20220123195239 66 185 5.2 10.4 0.01 0.21 0.18 89 1013.9
20220123194739 66 169 4.3 8.7 0.01 0.21 0.18 89 1013.8
20220123194239 66 158 5.2 8.7 0.01 0.21 0.18 89 1013.8
20220123193739 66 157 5.2 10.4 0.01 0.21 0.18 89 1013.8
20220123193239 66 162 7.0 10.4 0.01 0.21 0.18 89 1013.7
20220123192739 66 171 5.2 7.8 0.01 0.21 0.18 89 1013.7
20220123192239 66 197 5.2 10.4 0.01 0.21 0.18 88 1013.7
20220123191738 66 197 7.0 10.4 0.01 0.21 0.18 88 1013.7
20220123191239 66 202 5.2 8.7 0.01 0.21 0.18 88 1013.8
20220123190739 66 222 5.2 6.1 0.01 0.21 0.18 88 1013.7
20220123190239 66 202 4.3 6.1 0.01 0.21 0.18 89 1013.6
20220123185739 66 203 4.3 7.8 0.01 0.21 0.18 89 1013.6
20220123185239 65 161 4.3 6.1 0.00 0.20 0.17 89 1013.7
20220123184739 65 92 1.7 2.6 0.00 0.20 0.17 89 1013.7
20220123184240 65 92 1.7 2.6 0.00 0.20 0.17 89 1013.6
20220123183739 65 92 1.7 2.6 0.00 0.20 0.17 89 1013.5
20220123183239 65 91 0.9 2.6 0.00 0.20 0.17 89 1013.5
20220123182739 65 91 0.0 0.9 0.00 0.20 0.17 89 1013.4
20220123182239 65 91 0.0 1.7 0.00 0.20 0.17 89 1013.4
20220123181739 65 91 0.9 2.6 0.00 0.20 0.17 90 1013.4
20220123181238 65 92 2.6 7.8 0.00 0.21 0.17 89 1013.4
20220123180739 65 101 5.2 6.1 0.00 0.21 0.17 90 1013.3
20220123180239 65 159 4.3 7.0 0.00 0.24 0.17 90 1013.2
20220123175739 65 142 7.8 10.4 0.00 0.26 0.17 90 1013.1
20220123175239 65 163 7.0 10.4 0.00 0.26 0.17 90 1013.2
20220123174738 65 164 8.7 10.4 0.00 0.26 0.17 91 1013.2
20220123174239 65 164 7.8 10.4 0.00 0.26 0.17 91 1013.2
20220123173739 65 169 6.1 10.4 0.00 0.26 0.17 91 1013.1
20220123173239 65 195 7.8 10.4 0.00 0.26 0.17 91 1013.1
20220123172739 65 203 8.7 11.3 0.00 0.26 0.17 91 1013.1
20220123172238 65 190 8.7 13.0 0.00 0.26 0.17 91 1013.0
20220123171739 65 186 11.3 13.9 0.01 0.26 0.17 91 1013.0
20220123171238 65 179 7.8 11.3 0.01 0.26 0.17 91 1013.0
20220123170738 65 165 9.6 11.3 0.01 0.26 0.17 91 1013.2
20220123170238 65 163 7.8 10.4 0.01 0.26 0.17 91 1013.2
20220123165738 65 155 9.6 13.0 0.01 0.26 0.17 90 1013.3
20220123165238 65 164 6.1 10.4 0.01 0.26 0.17 90 1013.3
20220123164739 65 171 7.8 12.2 0.01 0.26 0.17 90 1013.2
20220123164238 65 175 7.8 12.2 0.01 0.26 0.17 90 1013.2
20220123163738 65 168 8.7 12.2 0.01 0.26 0.17 90 1013.2
20220123163238 65 162 8.7 11.3 0.01 0.26 0.17 90 1013.2
20220123162739 65 164 8.7 12.2 0.01 0.26 0.17 90 1013.3
20220123162238 65 159 10.4 13.9 0.01 0.26 0.17 90 1013.5
20220123161738 65 161 9.6 13.9 0.00 0.25 0.16 90 1013.5
20220123161238 65 156 8.7 13.0 0.00 0.25 0.16 89 1013.5
20220123160738 65 158 9.6 13.0 0.00 0.25 0.16 89 1013.6
20220123160238 65 165 9.6 14.8 0.00 0.25 0.16 89 1013.5
20220123155739 66 156 7.0 13.9 0.00 0.25 0.16 89 1013.6
20220123155238 66 177 7.0 11.3 0.00 0.25 0.16 89 1013.7
20220123154738 65 175 6.1 10.4 0.00 0.25 0.16 89 1013.8
20220123154239 65 161 5.2 7.8 0.01 0.25 0.16 89 1013.8
20220123153738 65 170 6.1 10.4 0.02 0.25 0.16 89 1013.6
20220123153239 66 183 7.8 10.4 0.03 0.25 0.16 89 1013.9
20220123152739 65 165 7.0 8.7 0.03 0.25 0.16 89 1013.8
20220123152239 65 188 5.2 8.7 0.03 0.25 0.16 89 1013.8
20220123151740 65 187 6.1 8.7 0.03 0.25 0.16 89 1013.9
20220123151238 65 194 7.0 8.7 0.03 0.25 0.16 89 1013.8
20220123150738 65 185 7.0 10.4 0.03 0.25 0.16 89 1013.7
20220123150239 66 180 7.8 10.4 0.03 0.25 0.16 89 1013.9
20220123145739 66 175 7.0 10.4 0.03 0.25 0.16 89 1013.8
20220123145238 66 177 5.2 8.7 0.03 0.25 0.16 89 1014.0
20220123144738 66 175 6.1 8.7 0.03 0.25 0.16 89 1014.0
20220123144238 66 151 7.8 10.4 0.02 0.24 0.15 89 1014.0
20220123143739 66 139 8.7 13.0 0.01 0.23 0.14 89 1014.2
20220123143238 66 155 4.3 7.0 0.00 0.22 0.13 88 1014.2
20220123142738 66 175 4.3 6.1 0.00 0.22 0.13 88 1014.1
20220123142238 66 180 5.2 7.0 0.00 0.22 0.13 88 1014.1
20220123141739 66 178 6.1 7.8 0.01 0.22 0.13 88 1014.2
20220123141238 66 186 4.3 5.2 0.01 0.22 0.13 88 1014.3
20220123140739 66 182 4.3 5.2 0.05 0.22 0.13 88 1014.3
20220123140239 66 165 3.5 5.2 0.13 0.22 0.13 88 1014.3
20220123135738 66 164 2.6 4.3 0.04 0.22 0.13 88 1014.3
20220123135238 66 163 3.5 6.1 0.04 0.22 0.13 88 1014.4
20220123134738 66 161 4.3 7.0 0.04 0.22 0.13 88 1014.6
20220123134239 66 174 4.3 7.0 0.04 0.22 0.13 87 1014.6
20220123133738 66 161 5.2 7.0 0.04 0.22 0.13 87 1014.7
20220123133238 66 135 6.1 10.4 0.04 0.22 0.13 87 1014.6
20220123132738 67 147 6.1 10.4 0.04 0.22 0.13 87 1014.7
20220123132238 67 157 5.2 10.4 0.04 0.22 0.13 86 1014.8
20220123131739 67 136 7.8 11.3 0.03 0.21 0.12 86 1015.0
20220123131238 68 172 4.3 7.0 0.03 0.21 0.12 85 1015.0
20220123130739 68 183 3.5 7.8 0.08 0.17 0.08 85 1015.0
20220123130238 67 192 0.9 1.7 0.00 0.09 0.00 85 1015.0
20220123125738 67 192 1.7 2.6 0.00 0.09 0.09 85 1015.0
20220123125237 67 192 1.7 4.3 0.00 0.09 0.09 85 1015.0
20220123124737 67 192 2.6 4.3 0.00 0.09 0.09 85 1015.0
20220123124237 68 197 2.6 4.3 0.00 0.09 0.09 84 1015.2
20220123123737 68 180 3.5 4.3 0.00 0.09 0.09 84 1015.2
20220123123237 68 178 2.6 4.3 0.00 0.09 0.09 84 1015.1
20220123122738 68 177 2.6 5.2 0.00 0.09 0.09 84 1015.3
20220123122237 68 165 0.9 5.2 0.00 0.09 0.09 84 1015.3
20220123121738 68 162 2.6 2.6 0.00 0.09 0.09 84 1015.4
20220123121238 68 161 1.7 4.3 0.00 0.09 0.09 84 1015.5
20220123120738 68 160 1.7 2.6 0.00 0.09 0.09 84 1015.5
20220123120238 68 106 0.0 1.7 0.00 0.09 0.09 84 1015.4
20220123115738 68 106 0.9 1.7 0.00 0.09 0.09 84 1015.4
20220123115238 68 106 0.9 1.7 0.00 0.09 0.09 84 1015.5
20220123114738 68 106 0.9 2.6 0.00 0.09 0.09 84 1015.4
20220123114238 68 106 1.7 2.6 0.00 0.09 0.09 83 1015.6
20220123113738 68 106 1.7 2.6 0.00 0.09 0.09 83 1015.5
20220123113238 68 106 1.7 4.3 0.00 0.09 0.09 83 1015.6
20220123112738 68 98 4.3 6.1 0.00 0.09 0.09 83 1015.6
20220123112239 68 103 5.2 10.4 0.00 0.09 0.09 83 1015.6
20220123111738 67 92 4.3 5.2 0.00 0.09 0.09 83 1015.5
20220123111238 67 100 2.6 4.3 0.00 0.09 0.09 84 1015.6
20220123110738 67 92 2.6 5.2 0.00 0.09 0.09 84 1015.5
20220123110238 67 81 3.5 4.3 0.00 0.09 0.09 84 1015.4
20220123105738 67 80 2.6 5.2 0.00 0.09 0.09 85 1015.3
20220123105237 67 79 3.5 6.1 0.00 0.09 0.09 85 1015.3